Погода Борзя

Погода Борзя : погода сейчас, прогноз погоды и архив. Всё, что Вы хотите узнать о погоде Борзя!

Хотите узнать прогноз погоды Борзя? Тогда Вам сюда: Погода Борзя

Поиск расширенной информации на нашем сайте:

Другие новости

Новости СМИ2

Главная страница сайта

Новости сайта

02.10.2013

Напоминаем, что на нашем новом сайте вы можете получить высокодетализированные прогнозы погоды по пунктам России, СНГ и мира (включающие важные для авиации метеовеличины, такие как направление и скорость ветра, видимость, явления погоды, количество и форма облачности, нижняя и верхняя граница облачности), а также ознакомиться с разнообразными материалами по авиационной метеорологии и подборкой полезных ссылок на эту тему.

Сайт Метеоцентр.Азия посвящён разработке технологий оптимизации авиаметеорологического обслуживания, включая проектирование и перспективное создание нескольких автоматизированных авиаметеорологических систем:
- система выпуска высокодетальных прогностических карт явлений погоды для нижнего воздушного пространства по России и ближнему зарубежью;
- система верификации прогнозов TAF (выпускаемых синоптиками официальных АМСГ РФ и ближнего зарубежья) и AUTOTAF (выпускаемых сайтом Метеоцентр.Азия) - выявление ошибок, онлайн-сопоставление с фактической погодой METAR, автоматическое внесение коррективов в прогнозы при резком отклонении фактической погоды от прогноза, подсчёт оправдываемости прогнозов по элементам и в целом;
- система обработки, анализа и отображения авиаметеорологической информации для применения провайдерами метеорологической информации.


Погода Борзя - сегодня

Время (UTC), дата Ветер
(°,м/с) 
Видим.   Явления Облачность Т
(°С)
Тd
(°С)
f(%) Тe
(°С)
Pmin
(гПа)
dP
(гПа)
Po
(мм)
O2
(г/м3)
Тmin Tmax R s Состояние
почвы
15 22.05.17 300 (СЗ) н/о    3/0 средняя 
[Ac lent]
+10.3 -12.6 19 +10  1012.4  1.2  701  273           
18 22.05.17 300 (СЗ) н/о    3/0 средняя, верхняя 
[Ac lent|Ci sp]
+8.3 -11.2 24 +7  1013.7  0.6  701  275           
21 22.05.17 260 (З) 20000 м    9/0 средняя, верхняя 
[Ac lent|Ci sp]
+5.6 -8.5 35 +5  1014.4  701  277           
00 23.05.17 340 (С) 20000 м    9/0 средняя, верхняя 
[Ac lent|Ci sp]
+9 -10.5 24 +8  1014  0.5  701  274  +5.4        сухая 
03 23.05.17 330 (СЗ) 20000 м    9/0 средняя, верхняя 
[Ac cuf|Ci sp]
+9.3 -3.4 41 +8  1013.1  -0.7  701  273           
06 23.05.17 320 (СЗ) 7-11{12}  20000 м    9/6 600 м кучево-дожд., верхняя 
[Cb calv|Ci sp]
+13 -0.1 41 +12  1010.7  -1.2  700  269           
09 23.05.17 350 (С) 7-11{15}  20000 м    9/4 600 м кучево-дожд., средняя, верхняя 
[Cb calv|Ac cast|Cc]
+14.3 -3.1 30 +13  1009.2  -1  699  268           
12 23.05.17 350 (С) 2{12}  20000 м    9/3 600 м средняя, верхняя 
[Sc|Ac cuf|Ci sp]
+12.9 -2.8 33 +13  1009.3  -0.3  699  269    +15.1       
15 23.05.17 080 (В) н/о    3/0 средняя, верхняя 
[Ac lent|Ci sp]
+4.5 -3.3 57 +5  1012.8  700  278           
18 23.05.17 060 (СВ) н/о    ясно 
-0.7 -3.5 81 1014  -0.3  699  283           
21 23.05.17 070 (В) 20000 м    4/0 средняя, верхняя 
[Ac lent|Ci sp]
-2.2 -5.9 76 -3  1014.3  -0.1  699  285           
00 24.05.17 330 (СЗ) 20000 м    3/0 средняя, верхняя 
[Ac lent|Ci sp]
+12.6 +0.5 43 +12  1010.5  0.6  700  269  -2.8        сухая 
03 24.05.17 330 (СЗ) 4{10}  20000 м    9/0 средняя, верхняя 
[Ac lent|Cc]
+17 -1.7 28 +17  1008.8  -0.5  699  265           
06 24.05.17 340 (С) 5{14}  20000 м    9/3 600 м кучево-дожд., средняя, верхняя 
[Cb calv|Ac lent|Ci sp]
+16.2 -1.1 31 +16  1009.7  0.7  700  266           
09 24.05.17 070 (В) 20000 м    9/0 средняя, верхняя 
[Sc diur, vesp|Ac lent|Ci sp]
+16.6 +0.3 33 +17  1009.7  0.1  700  266           
12 24.05.17 080 (В) 20000 м    9/6 600 м средняя, верхняя 
[Sc|Ac lent|Ci sp]
+14.5 +0.2 38 +15  1011.2  0.9  701  268    +18.5       
15 24.05.17 030 (СВ) н/о    5/0 средняя, верхняя 
[Ac lent|Ci sp]
+5.9 +0.4 68 +7  1015.6  1.8  702  277           
18 24.05.17 040 (СВ) н/о    3/0 верхняя 
[Ci sp]
+3 -1.3 73 +4  1016.7  0.2  702  280           
21 24.05.17 050 (СВ) 20000 м    9/0 средняя, верхняя 
[Ac lent|Ci sp]
+1.5 -2.7 74 +2  1016.7  -0.4  702  281           
00 25.05.17 210 (ЮЗ) 20000 м    9/0 верхняя 
[Cc]
+15.8 -2.2 29 +16  1012.1  -0.5  701  267  +1.4        сухая 
03 25.05.17 210 (ЮЗ) 6-10{10}  20000 м    9/0 верхняя 
[Ci fib]
+22.5 +1.4 25 +23  1007.9  -2.1  700  260           
06 25.05.17 240 (ЮЗ) 4{12}  20000 м    9/0 верхняя 
[Ci fib]
+27.2 +1.1 18 +27  1003.7  -2.8  698  255           
09 25.05.17 280 (З) 3{11}  20000 м    9/0 верхняя 
[Ci sp]
+28.8 -0.3 15 +29  1001.7  -1.6  697  254           
12 25.05.17 160 (Ю) 20000 м    9/0 средняя, верхняя 
[Ac lent|Ci sp]
+24.6 -0.2 19 +25  1002.4  -0.3  696  257    +28.9       
15 25.05.17 160 (Ю) 6-10{10}  н/о    9/0 верхняя 
[Ci sp]
+20.4 +0.7 27 +20  1003.4  0.1  696  261           
Время (UTC), дата Ветер
(°,м/с) 
Видим.   Явления Облачность Т
(°С)
Тd
(°С)
f(%) Тe
(°С)
Pmin
(гПа)
dP
(гПа)
Po
(мм)
O2
(г/м3)
Тmin Tmax R s Состояние
почвы

Для получения пояснительной информации подведите курсор к названию столбца.

ПОГОДА Борзя - архив

Всё, что Вы хотите узнать о погоде Борзя - удобно и подробно!

Выберите нужную дату (начиная с 1 января 2015* года) и нажмите кнопку "Найти".
Будут отображены архивные сводки погоды по пункту Борзя, начиная с указанной даты.


Отображать данные в формате CSV (для использования в таблицах Excel)


Внимание! Наш архив погоды предназначен исключительно для личного некоммерческого использования в познавательных целях. Если Вам необходимы официальные справки о состоянии погоды (для производственных, юридических, коммерческих и т.п. целей), обращайтесь в органы Росгидромета.

*Примечание: данная дата относится к архиву по метеостанциям СССР (Россия, СНГ, Балтия).
Архив по метеостанциям Зарубежной Европы и Азии (кроме Китая) хранится 10 дней, по другим регионам земного шара (Китай, Африка, Америка, Австралия, Океания) - 1 день.

Борзя - район местоположения метеостанции


Название, широта, долгота, высота метеостанции:
Борзя 50.4°ш. 116.5°д. 676 м над ур. моря [Российская Федерация]

Дополнительная информация

В oтличие oт бoльшинства пoгoдных сайтoв мы публикуем пoдрoбную метеoинфoрмацию в детальнoм прoфессиoнальнoм фoрмате.

Характеристики температуры и влажнoсти вoздуха измеряются на высoте 2 м в тени вдали oт зданий и деревьев.
Скoрoсть ветра измеряется на высoте 10 м (на урoвне рoста челoвека скoрoсть ветра ниже в 1.5-2 раза). Если метеoстанция нахoдится в гoрoде или в лесу, тo скoрoсть ветра занижена на 2-4 м/с пo сравнению с oткрытым местoм. Скoрoсть ветра над акватoриями крупных рек и oзёр, а также на вершинах хoлмoв на 2-5 м/с выше, чем в oбычных услoвиях.
Атмoсфернoе давление в разных тoчках местнoсти мoжет значительнo oтличаться oт давления на метеoстанции, в зависимoсти oт услoвий рельефа (при пoдъёме на 10 м давление пoнижается примернo на 1 мм рт.ст.).